Regional Weather Roundup
Issued by NWS

Home | Current Version | Previous Version | Graphics & Text | Print | Product List | Glossary On
Versions: 1 2 3 4 5 6 7 8 9 10 11 12 13 14 15 16 17 18 19 20 21 22 23 24 25 26 27 28 29 30 31 32 33 34 35 36 37 38 39 40 41 42 43 44 45 46 47 48 49 50
000
ASUS43 KMKX 211221
RWRWI

WISCONSIN REGIONAL WEATHER ROUNDUP
NATIONAL WEATHER SERVICE MILWAUKEE/SULLIVAN WI
700 AM CDT TUE APR 21 2015

NOTE: "FAIR" INDICATES FEW OR NO CLOUDS BELOW 12,000 FEET WITH NO
SIGNIFICANT WEATHER AND/OR OBSTRUCTIONS TO VISIBILITY.

WIZ001-002-006>008-014>016-023>028-211300-
NORTHWEST WISCONSIN

CITY           SKY/WX    TMP DP  RH WIND       PRES   REMARKS
SUPERIOR ARPT  CLOUDY    33  28  83 W14G20    29.41S WCI  23
6HR MIN TEMP:  33; 6HR MAX TEMP:  35;

ASHLAND        CLOUDY    32  29  88 W12       29.37R WCI  23
6HR MIN TEMP:  31; 6HR MAX TEMP:  34; 6HR PCP: TRACE;

HAYWARD        LGT SNOW  31  28  89 VRB7      29.40S FOG     WCI  24
6HR MIN TEMP:  31; 6HR MAX TEMP:  33; 6HR PCP:  0.02;

SIREN          LGT SNOW  32  29  89 W9        29.47R WCI  24
6HR MIN TEMP:  32; 6HR MAX TEMP:  33;

CUMBERLAND     LGT SNOW  32  28  86 W16       29.45R WCI  21
RICE LAKE      FLURRIES  32  29  88 W10       29.47S WCI  24
6HR MIN TEMP:  32; 6HR MAX TEMP:  34;

CHETEK         CLOUDY    32  29  90 W9        29.46R WCI  24
6HR MIN TEMP:  32; 6HR MAX TEMP:  34;

LADYSMITH      LGT SNOW  33  30  88 W14       29.43S WCI  23
6HR MIN TEMP:  33; 6HR MAX TEMP:  34;

EAU CLAIRE     FLURRIES  34  27  75 W16G24    29.48R WCI  24
6HR MIN TEMP:  34; 6HR MAX TEMP:  36; 6HR PCP: TRACE;

MENOMONIE      LGT SNOW  34  29  83 W14       29.49R WCI  25
6HR MIN TEMP:  34; 6HR MAX TEMP:  36;

NEW RICHMOND   LGT SNOW  32  27  81 W17       29.51R WCI  21
6HR MIN TEMP:  32; 6HR MAX TEMP:  34;

OSCEOLA        FLURRIES  33  26  75 W12       29.54R WCI  25
6HR MIN TEMP:  33; 6HR MAX TEMP:  35;

$$

WIZ003>005-009-010-017-018-211300-
NORTH CENTRAL WISCONSIN

CITY           SKY/WX    TMP DP  RH WIND       PRES   REMARKS
MANITOWISH WTR LGT SNOW  30  29  96 W14       29.32R WCI  20
6HR MIN TEMP:  30; 6HR MAX TEMP:  31;

ARBOR VITAE    LGT SNOW  32  29  89 W10G18    29.32S WCI  24
6HR MIN TEMP:  32; 6HR MAX TEMP:  34;

WOODRUFF       LGT SNOW  32  29  89 W10G18    29.32S WCI  24
6HR MIN TEMP:  32; 6HR MAX TEMP:  34;

RHINELANDER    LGT SNOW  31  28  89 W16       29.34R FOG     WCI  20
6HR MIN TEMP:  31; 6HR MAX TEMP:  32; 6HR PCP: TRACE;

EAGLE RIVER    LGT SNOW  31  29  92 W9        29.31R WCI  23
6HR MIN TEMP:  31; 6HR MAX TEMP:  32;

LAND O LAKES   LGT SNOW  32  30  93 W10       29.31R WCI  24
6HR MIN TEMP:  32; 6HR MAX TEMP:  32;

PHILLIPS       LGT SNOW  30  28  90 W7        29.37R WCI  23
6HR MIN TEMP:  30; 6HR MAX TEMP:  32;

TOMAHAWK       LGT SNOW  31  29  92 CALM      29.37R
6HR MIN TEMP:  31; 6HR MAX TEMP:  32;

MEDFORD        LGT SNOW  31  29  92 W15G22    29.40R WCI  20
6HR MIN TEMP:  31; 6HR MAX TEMP:  32;

MERRILL        LGT SNOW  32  31  95 W12       29.38R WCI  23
6HR MIN TEMP:  32; 6HR MAX TEMP:  34;

$$

WIZ029-030-035-036-043>047-211300-
CENTRAL WISCONSIN

CITY           SKY/WX    TMP DP  RH WIND       PRES   REMARKS
WAUSAU         CLOUDY    33  29  85 W16       29.39R WCI  23
6HR MIN TEMP:  33; 6HR MAX TEMP:  35; 6HR PCP: TRACE;

MOSINEE        CLOUDY    32  32 100 W15G22    29.41S WCI  22
MARSHFIELD     LGT SNOW  33  30  88 W15       29.43S FOG     WCI  23
6HR MIN TEMP:  33; 6HR MAX TEMP:  35; 6HR PCP:  0.03;

STEVENS POINT  LGT SNOW  32  29  90 W12G18    29.43S WCI  23
6HR MIN TEMP:  32; 6HR MAX TEMP:  34; 6HR PCP:  0.02;

WAUPACA        MOCLDY    37  32  82 W15       29.44S WCI  28
6HR MIN TEMP:  36; 6HR MAX TEMP:  40;

WAUTOMA        CLOUDY    36  32  87 W10       29.48R WCI  28
6HR MIN TEMP:  35; 6HR MAX TEMP:  40; 6HR PCP: TRACE;

WISC RAPIDS    LGT SNOW  34  29  82 W9        29.46S WCI  27
6HR MIN TEMP:  34; 6HR MAX TEMP:  37; 6HR PCP:  0.01;

CAMP DOUGLAS   LGT SNOW  34  34 100 SW15G21   29.49R FOG     WCI  24
                                      6HR PCP:  0.03;

$$

WIZ011>013-019>022-031-037>040-048>050-211300-
NORTHEAST WISCONSIN

CITY           SKY/WX    TMP DP  RH WIND       PRES   REMARKS
ANTIGO         CLOUDY    31  29  92 W9        29.36S WCI  23
SHAWANO        CLOUDY    37  31  78 W9G18     29.40S WCI  31
6HR MIN TEMP:  37; 6HR MAX TEMP:  40;

OCONTO         CLOUDY    36  32  85 W10       29.39R WCI  29
6HR MIN TEMP:  36; 6HR MAX TEMP:  38;

STURGEON BAY   CLOUDY    37  28  70 W15G21    29.40S WCI  28
6HR MIN TEMP:  36; 6HR MAX TEMP:  39;

GREEN BAY      CLOUDY    37  31  78 W13       29.42R WCI  29
6HR MIN TEMP:  37; 6HR MAX TEMP:  41; 6HR PCP:  0.01;

MANITOWOC      MIX PCPN  37  34  87 W12       29.44R WCI  30
6HR MIN TEMP:  36; 6HR MAX TEMP:  41; 6HR PCP: TRACE;

APPLETON       LGT SNOW  36  30  80 W14       29.44R WCI  27
CLINTONVILLE   CLOUDY    34  32  93 W12       29.41S WCI  25
OSHKOSH        CLOUDY    36  31  82 W10G21    29.45R WCI  28
6HR MIN TEMP:  35; 6HR MAX TEMP:  40; 6HR PCP: TRACE;

$$

WIZ032>034-041-042-053>061-211300-
SOUTHWEST WISCONSIN

CITY           SKY/WX    TMP DP  RH WIND       PRES   REMARKS
LA CROSSE      CLOUDY    39  26  59 W18G26    29.53R WCI  30
6HR MIN TEMP:  38; 6HR MAX TEMP:  41; 6HR PCP: TRACE;

SPARTA         CLOUDY    36  27  70 W8G16     29.51S WCI  30
6HR MIN TEMP:  35; 6HR MAX TEMP:  38;

VIROQUA        CLOUDY    34  29  83 W13G23    29.52S WCI  25
6HR MIN TEMP:  33; 6HR MAX TEMP:  37;

BOSCOBEL       CLOUDY    40  24  53 W15       29.57R WCI  32
6HR MIN TEMP:  40; 6HR MAX TEMP:  42;

PRAIRIE DU CHI CLOUDY    40  28  62 W10G21    29.59S WCI  33
6HR MIN TEMP:  39; 6HR MAX TEMP:  40;

PLATTEVILLE    CLOUDY    38  31  75 W22G30    29.59R WCI  28
6HR MIN TEMP:  38; 6HR MAX TEMP:  39;

$$

WIZ056-057-062-063-064-067-068-211300-
SOUTH CENTRAL WISCONSIN

CITY           SKY/WX    TMP DP  RH WIND       PRES   REMARKS
REEDSBURG      CLOUDY    35  31  85 W15       29.51R WCI  25
6HR MIN TEMP:  33; 6HR MAX TEMP:  38;

BARABOO/DELLS  CLOUDY    35  30  82 W10G20    29.50S WCI  27
6HR MIN TEMP:  34; 6HR MAX TEMP:  38;

LONE ROCK      CLOUDY    39  25  57 W20G30    29.54R WCI  29
6HR MIN TEMP:  39; 6HR MAX TEMP:  41; 6HR PCP: TRACE;

MINERAL POINT  CLOUDY    37  27  65 W29G38    29.54S WCI  25
MADISON        CLOUDY    39  28  64 W7G16     29.51S WCI  34
6HR MIN TEMP:  38; 6HR MAX TEMP:  41;

MIDDLETON      CLOUDY    40  28  63 W15G21    29.52S WCI  31
6HR MIN TEMP:  39; 6HR MAX TEMP:  41;

WATERTOWN      CLOUDY    38  31  78 W9        29.50S WCI  31
6HR MIN TEMP:  37; 6HR MAX TEMP:  40;

MONROE         CLOUDY    37  30  75 W28G36    29.55R WCI  25
JANESVILLE     CLOUDY    41  30  65 W20       29.54S
$$

WIZ051-052-058>065-066-070>072-211300-
SOUTHEAST WISCONSIN

CITY           SKY/WX    TMP DP  RH WIND       PRES   REMARKS
MILWAUKEE      PTCLDY    39  28  64 SW17G25   29.52R WCI  30
6HR MIN TEMP:  39; 6HR MAX TEMP:  43;

WAUKESHA       MOCLDY    36  28  75 SW12G21   29.51R WCI  27
MILWAUKEE/TIMM CLOUDY    37  30  75 W17G23    29.50S WCI  28
RACINE         PTCLDY    39  28  64 W13G23    29.54R WCI  31
6HR MIN TEMP:  38; 6HR MAX TEMP:  43;

BURLINGTON     MOCLDY    37  29  74 W15G22    29.53S WCI  28
6HR MIN TEMP:  35; 6HR MAX TEMP:  39;

KENOSHA        CLEAR     39  30  70 W21       29.54R WCI  29
6HR MIN TEMP:  37; 6HR MAX TEMP:  42;

FOND DU LAC    CLOUDY    36  30  79 W10       29.47R WCI  28
6HR MIN TEMP:  34; 6HR MAX TEMP:  40; 6HR PCP:  0.05;

SHEBOYGAN      CLOUDY    36  32  85 W20G25    29.46R WCI  25
6HR MIN TEMP:  34; 6HR MAX TEMP:  41; 6HR PCP:  0.02;

WEST BEND      CLOUDY    36  32  87 W10       29.48R WCI  28
JUNEAU         CLOUDY    36  31  83 SW20      29.50S WCI  25
6HR MIN TEMP:  35; 6HR MAX TEMP:  38;

$$

LSZ147-162-211300-
LAKE SUPERIOR

STATION/POSITION TIME  TEMP    WIND        PRES    WAVE
                       AIR SEA DIR/SP/G            HT/PER
                 (UTC) (F)     (DEG/KT/KT) (MB)    (FT/S)
DEVILS ISLAND    1200   34     260/ 23/ 27  993.8R
PORT WING        1100   35     260/ 15/ 21  994.9S
SAXON HARBOR     1140   33     250/  5/ 11  994.2R
$$

LMZ867-665-643>646-211300-
LAKE MICHIGAN

STATION/POSITION TIME  TEMP    WIND        PRES    WAVE
                       AIR SEA DIR/SP/G            HT/PER



USA.gov is the U.S. government's official web portal to all federal, state and local government web resources and services.